TimeEDT,TemperatureF,Dew PointF,Humidity,Sea Level PressureIn,VisibilityMPH,Wind Direction,Wind SpeedMPH,Gust SpeedMPH,PrecipitationIn,Events,Conditions,WindDirDegrees,DateUTC
12:52 AM,68.0,68.0,100,30.01,8.0,SSW,8.1,-,0.00,,Overcast,210,2013-07-01 04:52:00
1:17 AM,68.0,68.0,100,30.01,8.0,Variable,6.9,-,0.00,Rain,Light Rain,0,2013-07-01 05:17:00
1:39 AM,68.0,68.0,100,30.01,7.0,SSW,9.2,-,0.00,,Overcast,200,2013-07-01 05:39:00
1:52 AM,68.0,68.0,100,30.01,8.0,SSW,6.9,-,0.00,,Overcast,210,2013-07-01 05:52:00
2:10 AM,68.0,68.0,100,30.00,8.0,SSW,11.5,17.3,N/A,,Overcast,210,2013-07-01 06:10:00
2:39 AM,69.8,69.8,100,30.00,8.0,SW,9.2,-,N/A,,Overcast,220,2013-07-01 06:39:00
2:52 AM,70.0,69.1,97,30.00,8.0,SW,6.9,-,N/A,,Overcast,220,2013-07-01 06:52:00
3:06 AM,69.8,69.8,100,30.00,8.0,SW,9.2,17.3,N/A,,Overcast,220,2013-07-01 07:06:00
3:52 AM,69.1,69.1,100,30.00,7.0,SW,6.9,-,N/A,,Overcast,220,2013-07-01 07:52:00
4:52 AM,70.0,69.1,97,30.01,7.0,SW,9.2,-,N/A,,Overcast,220,2013-07-01 08:52:00
5:52 AM,69.1,69.1,100,30.03,5.0,Variable,4.6,-,0.02,,Overcast,0,2013-07-01 09:52:00
6:52 AM,69.1,69.1,100,30.04,5.0,SSW,8.1,-,N/A,,Overcast,210,2013-07-01 10:52:00
7:49 AM,71.6,69.8,94,30.05,3.0,SSW,8.1,-,0.01,Rain,Light Rain,210,2013-07-01 11:49:00
7:52 AM,71.1,70.0,96,30.05,3.0,SSW,5.8,-,0.01,Rain,Light Rain,210,2013-07-01 11:52:00
8:52 AM,70.0,70.0,100,30.06,4.0,SSW,8.1,-,0.00,,Overcast,200,2013-07-01 12:52:00
9:10 AM,69.8,69.8,100,30.06,1.8,SSW,5.8,-,N/A,,Overcast,210,2013-07-01 13:10:00
9:29 AM,69.8,69.8,100,30.06,3.0,SSW,5.8,-,N/A,,Overcast,200,2013-07-01 13:29:00
9:52 AM,72.0,71.1,97,30.06,6.0,SSW,6.9,-,N/A,,Overcast,210,2013-07-01 13:52:00
10:22 AM,71.6,69.8,94,30.06,1.8,SSW,8.1,-,N/A,,Overcast,210,2013-07-01 14:22:00
10:40 AM,71.6,71.6,100,30.06,3.0,Variable,4.6,-,0.00,Rain,Light Rain,0,2013-07-01 14:40:00
10:52 AM,71.1,71.1,100,30.07,7.0,Variable,5.8,-,0.00,,Overcast,0,2013-07-01 14:52:00
11:52 AM,72.0,70.0,93,30.07,7.0,SSW,6.9,-,0.01,,Overcast,210,2013-07-01 15:52:00
12:52 PM,73.0,71.1,93,30.08,6.0,SW,8.1,-,N/A,,Overcast,230,2013-07-01 16:52:00
1:45 PM,73.4,71.6,94,30.08,5.0,SW,8.1,18.4,0.00,Rain,Light Rain,230,2013-07-01 17:45:00
1:52 PM,72.0,71.1,97,30.08,7.0,SW,9.2,17.3,0.00,,Overcast,220,2013-07-01 17:52:00
2:52 PM,73.0,71.1,93,30.08,7.0,SW,9.2,-,N/A,,Overcast,220,2013-07-01 18:52:00
3:52 PM,73.9,71.1,91,30.09,10.0,SSW,9.2,-,N/A,,Overcast,210,2013-07-01 19:52:00
4:12 PM,71.6,69.8,94,30.08,8.0,SW,11.5,21.9,N/A,,Overcast,220,2013-07-01 20:12:00
4:52 PM,73.0,71.1,93,30.08,5.0,SSW,10.4,17.3,0.00,Rain,Light Rain,210,2013-07-01 20:52:00
5:13 PM,71.6,71.6,100,30.07,6.0,SW,8.1,19.6,0.00,,Overcast,220,2013-07-01 21:13:00
5:52 PM,72.0,70.0,93,30.09,7.0,SW,9.2,16.1,0.00,,Overcast,220,2013-07-01 21:52:00
6:06 PM,71.6,69.8,94,30.08,7.0,SW,9.2,19.6,N/A,,Overcast,220,2013-07-01 22:06:00
6:14 PM,71.6,69.8,94,30.08,7.0,SW,10.4,17.3,N/A,,Overcast,220,2013-07-01 22:14:00
6:36 PM,71.6,69.8,94,30.09,7.0,SW,10.4,17.3,N/A,,Overcast,220,2013-07-01 22:36:00
6:52 PM,72.0,70.0,93,30.09,7.0,SSW,9.2,16.1,N/A,,Overcast,210,2013-07-01 22:52:00
7:38 PM,71.6,69.8,94,30.09,6.0,SSW,8.1,17.3,N/A,,Overcast,210,2013-07-01 23:38:00
7:48 PM,71.6,69.8,94,30.09,6.0,SSW,8.1,16.1,N/A,,Overcast,210,2013-07-01 23:48:00
7:52 PM,71.1,69.1,93,30.10,6.0,SSW,9.2,16.1,N/A,,Overcast,210,2013-07-01 23:52:00
8:52 PM,70.0,69.1,97,30.13,7.0,SW,8.1,17.3,N/A,,Overcast,220,2013-07-02 00:52:00
9:52 PM,71.1,70.0,96,30.14,7.0,SW,9.2,-,N/A,,Overcast,230,2013-07-02 01:52:00
10:52 PM,70.0,69.1,97,30.15,7.0,SW,5.8,-,0.00,,Overcast,220,2013-07-02 02:52:00
11:52 PM,69.1,68.0,96,30.14,7.0,SSW,5.8,-,N/A,,Mostly Cloudy,210,2013-07-02 03:52:00